TimeEST,TemperatureF,Dew PointF,Humidity,Sea Level PressureIn,VisibilityMPH,Wind Direction,Wind SpeedMPH,Gust SpeedMPH,PrecipitationIn,Events,Conditions,WindDirDegrees,DateUTC
12:52 AM,19.0,16.0,88,30.34,10.0,Calm,Calm,-,N/A,,Clear,0,2012-11-16 05:52:00
1:52 AM,19.0,14.0,81,30.35,10.0,Calm,Calm,-,N/A,,Clear,0,2012-11-16 06:52:00
2:52 AM,18.0,14.0,84,30.35,10.0,Calm,Calm,-,0.00,,Clear,0,2012-11-16 07:52:00
3:52 AM,18.0,14.0,84,30.34,10.0,Calm,Calm,-,0.00,,Clear,0,2012-11-16 08:52:00
4:52 AM,18.0,12.9,81,30.35,10.0,Calm,Calm,-,N/A,,Clear,0,2012-11-16 09:52:00
5:06 AM,17.6,14.0,86,30.29,10.0,Calm,Calm,-,N/A,,Scattered Clouds,0,2012-11-16 10:06:00
5:52 AM,17.1,12.0,81,30.37,10.0,Calm,Calm,-,N/A,,Clear,0,2012-11-16 10:52:00
6:52 AM,16.0,10.9,81,30.38,10.0,Calm,Calm,-,N/A,,Clear,0,2012-11-16 11:52:00
7:28 AM,15.8,12.2,86,30.33,10.0,Calm,Calm,-,N/A,,Scattered Clouds,0,2012-11-16 12:28:00
7:36 AM,17.6,12.2,79,30.33,10.0,Calm,Calm,-,N/A,,Mostly Cloudy,0,2012-11-16 12:36:00
7:52 AM,18.0,14.0,84,30.39,10.0,Calm,Calm,-,N/A,,Overcast,0,2012-11-16 12:52:00
8:15 AM,19.4,15.8,86,30.33,10.0,Calm,Calm,-,N/A,,Scattered Clouds,0,2012-11-16 13:15:00
8:31 AM,19.4,17.6,93,30.33,10.0,Calm,Calm,-,N/A,,Mostly Cloudy,0,2012-11-16 13:31:00
8:52 AM,21.0,18.0,88,30.39,10.0,Calm,Calm,-,N/A,,Mostly Cloudy,0,2012-11-16 13:52:00
9:00 AM,21.2,19.4,93,30.34,10.0,Calm,Calm,-,N/A,,Scattered Clouds,0,2012-11-16 14:00:00
9:52 AM,26.1,24.1,92,30.40,10.0,Calm,Calm,-,N/A,,Clear,0,2012-11-16 14:52:00
10:52 AM,32.0,26.1,79,30.38,10.0,Calm,Calm,-,N/A,,Clear,0,2012-11-16 15:52:00
11:52 AM,36.0,26.1,67,30.36,10.0,Calm,Calm,-,N/A,,Clear,0,2012-11-16 16:52:00
12:52 PM,37.9,23.0,55,30.35,10.0,Calm,Calm,-,N/A,,Clear,0,2012-11-16 17:52:00
1:52 PM,41.0,23.0,49,30.35,10.0,Calm,Calm,-,N/A,,Clear,0,2012-11-16 18:52:00
2:52 PM,39.0,23.0,53,30.36,10.0,Calm,Calm,-,N/A,,Clear,0,2012-11-16 19:52:00
3:52 PM,37.9,24.1,57,30.39,10.0,Calm,Calm,-,N/A,,Clear,0,2012-11-16 20:52:00
4:52 PM,30.0,24.1,79,30.41,10.0,Calm,Calm,-,N/A,,Clear,0,2012-11-16 21:52:00
5:52 PM,28.0,24.1,85,30.43,10.0,South,3.5,-,N/A,,Clear,170,2012-11-16 22:52:00
6:52 PM,28.0,23.0,81,30.45,10.0,Calm,Calm,-,N/A,,Clear,0,2012-11-16 23:52:00
7:52 PM,25.0,21.0,85,30.47,10.0,Calm,Calm,-,N/A,,Clear,0,2012-11-17 00:52:00
8:52 PM,25.0,21.0,85,30.48,10.0,Calm,Calm,-,N/A,,Clear,0,2012-11-17 01:52:00
9:22 PM,24.8,21.2,86,30.43,10.0,Calm,Calm,-,N/A,,Mostly Cloudy,0,2012-11-17 02:22:00
9:52 PM,26.1,23.0,88,30.49,10.0,Calm,Calm,-,N/A,,Overcast,0,2012-11-17 02:52:00
10:52 PM,28.0,24.1,85,30.49,10.0,Calm,Calm,-,N/A,,Overcast,0,2012-11-17 03:52:00
11:19 PM,28.4,24.8,86,30.43,10.0,Calm,Calm,-,N/A,,Overcast,0,2012-11-17 04:19:00
11:38 PM,28.4,24.8,86,30.44,10.0,Calm,Calm,-,N/A,,Overcast,0,2012-11-17 04:38:00
11:52 PM,28.9,26.1,89,30.48,10.0,Calm,Calm,-,N/A,,Overcast,0,2012-11-17 04:52:00